Meacham, OR

7:37 AM PDT on July 28, 2016 (GMT -0700)
Meacham

Weather History for KMEH - August, 2012

Change the Weather History Date:

Monday, August 20, 2012

  Actual Average Record
Temperature  
Mean Temperature 62 °F -  
Max Temperature 84 °F 76 °F 91 °F (1997)
Min Temperature 43 °F 38 °F 28 °F (2001)
Degree Days  
Heating Degree Days 2    
Growing Degree Days 12 (Base 50)    
Moisture  
Dew Point 41 °F    
Average Humidity 50    
Maximum Humidity 86    
Minimum Humidity 18    
Precipitation  
Precipitation 0.00 in - - ()
Sea Level Pressure  
Sea Level Pressure 29.98 in    
Wind  
Wind Speed 0 mph (North)    
Max Wind Speed 5 mph    
Max Gust Speed -    
Visibility 10 miles    
Events      
Averages and records for this station are not official NWS values.
T = Trace of Precipitation, MM = Missing Value Source: NWS Daily Summary

Daily Weather History Graph

Daily Weather History Graph

Search for Another Location

Airport or City:

Trip Planner

Search our weather history database for the weather conditions in past years. The results will help you decide how hot, cold, wet, or windy it might be!

Date:

Astronomy

Aug. 20, 2012 Rise Set
Actual Time 6:01 AM PDT 7:51 PM PDT
Civil Twilight 5:29 AM PDT 8:23 PM PDT
Nautical Twilight 4:50 AM PDT 9:02 PM PDT
Astronomical Twilight 4:08 AM PDT 9:44 PM PDT
Moon 9:43 AM PDT (8/20) 9:01 PM PDT (8/20)
Length of Visible Light 14h 53m
Length of Day
13h 50m
Waxing Crescent, 12% of the Moon is Illuminated
Aug 20
Waxing Crescent
Aug 24
First Quarter
Aug 31
Full
Sep 8
Last Quarter
Sep 15
New

Hourly Weather History & Observations

Time (PDT) Temp. Dew Point Humidity Pressure Visibility Wind Dir Wind Speed Gust Speed Precip Events Conditions
12:56 AM 52.0 °F 45.0 °F 77% 29.99 in 10.0 mi Calm Calm - N/A   Clear
1:56 AM 48.9 °F 43.0 °F 80% 30.01 in 10.0 mi Calm Calm - N/A   Clear
2:56 AM 46.9 °F 42.1 °F 83% 30.01 in 10.0 mi Calm Calm - N/A   Clear
3:56 AM 46.0 °F 39.9 °F 79% 30.02 in 10.0 mi Calm Calm - N/A   Clear
4:56 AM 44.1 °F 39.9 °F 85% 30.02 in 10.0 mi Calm Calm - N/A   Clear
5:56 AM 43.0 °F 39.0 °F 86% 30.02 in 10.0 mi Calm Calm - N/A   Clear
6:56 AM 45.0 °F 39.9 °F 82% 30.03 in 10.0 mi Calm Calm - N/A   Clear
7:56 AM 53.1 °F 43.0 °F 69% 30.02 in 10.0 mi Calm Calm - N/A   Clear
8:56 AM 64.9 °F 44.1 °F 47% 30.01 in 10.0 mi Calm Calm - N/A   Clear
9:56 AM 75.0 °F 37.9 °F 26% 30.00 in 10.0 mi Calm Calm - N/A   Clear
10:56 AM 78.1 °F 41.0 °F 27% 29.99 in 10.0 mi Calm Calm - N/A   Clear
11:56 AM 82.0 °F 42.1 °F 24% 29.98 in 10.0 mi Calm Calm - N/A   Clear
12:56 PM 82.0 °F 37.9 °F 21% 29.98 in 10.0 mi Variable 3.5 mph - N/A   Clear
1:56 PM 81.0 °F 34.0 °F 18% 29.99 in 10.0 mi Calm Calm - N/A   Clear
2:56 PM 82.9 °F 37.0 °F 19% 29.97 in 10.0 mi Variable 3.5 mph - N/A   Clear
3:56 PM 82.9 °F 37.9 °F 20% 29.96 in 10.0 mi Variable 3.5 mph - N/A   Clear
4:56 PM 82.9 °F 39.0 °F 21% 29.96 in 10.0 mi Variable 4.6 mph - N/A   Clear
5:56 PM 82.0 °F 37.0 °F 20% 29.95 in 10.0 mi Variable 3.5 mph - N/A   Clear
6:56 PM 75.9 °F 39.0 °F 26% 29.96 in 10.0 mi Calm Calm - N/A   Clear
7:56 PM 69.1 °F 44.1 °F 40% 29.96 in 10.0 mi Calm Calm - N/A   Clear
8:56 PM 62.1 °F 45.0 °F 53% 29.95 in 10.0 mi Calm Calm - N/A   Clear
9:56 PM 57.9 °F 44.1 °F 60% 29.94 in 10.0 mi Calm Calm - N/A   Clear
10:56 PM 55.0 °F 44.1 °F 67% 29.94 in 10.0 mi Calm Calm - N/A   Clear
11:56 PM 52.0 °F 43.0 °F 71% 29.93 in 10.0 mi Calm Calm - N/A   Clear